Location: Mohawk View
(42.7837°N, 73.7885°W)
Time: 15:46:32
(UTC+00:00)

Cosmos 1437 - Pass Details

Date: 17 June 2021
Orbit: 333 x 334 km, 81.1° (Epoch: 01 August)

Event Time Altitude Azimuth Distance (km) Brightness Sun altitude
Rises 06:49:37 0° 357° (N) 2,144 7.4 -18.8°
Reaches altitude 10° 06:51:38 10° 6° (N) 1,301 6.3 -18.7°
Maximum altitude 06:54:18 38° 77° (ENE) 544 3.6 -18.4°
Enters shadow 06:55:05 30° 117° (ESE) 644 3.7 -18.4°
